When you browse on this site, cookies collect data to enhance your experience and personalize the content and advertising you see.
Visit our Privacy Policy to learn more. By continuing to use the site, you agree to this use of cookies and data.
  • In Denmark
  • List of Countries
  • For 7 days
  • Water Temperature
  • Satellite Maps
  • Weather Map
  • Weather Widgets
  • user-avatar
    Login

    Hourly Weather Sevan

    Today, 14 December, Friday

    Time Temperature Precipitation Wind Pressure Humidity
    00:00 -5°C° 0 mm 2 mps 641 mmHg 64%
    01:00 -5°C° 0 mm 2 mps 641 mmHg 64%
    02:00 -6°C° 0 mm 2 mps 642 mmHg 64%
    03:00 -4°C° 0 mm 2 mps 641 mmHg 57%
    04:00 -4°C° 0 mm 2 mps 642 mmHg 56%
    05:00 -5°C° 0 mm 2 mps 642 mmHg 55%
    06:00 -5°C° 0 mm 2 mps 642 mmHg 53%
    07:00 -4°C° 0 mm 2 mps 643 mmHg 53%
    08:00 -3°C° 0 mm 2 mps 643 mmHg 52%
    09:00 -2°C° 0 mm 2 mps 643 mmHg 50%
    10:00 -1°C° 0.1 mm 3 mps 643 mmHg 52%
    11:00 -1°C° 0.1 mm 3 mps 643 mmHg 54%
    12:00 0°C° 0.1 mm 3 mps 643 mmHg 56%
    13:00 0°C° 0.2 mm 3 mps 643 mmHg 59%
    14:00 0°C° 0.2 mm 3 mps 642 mmHg 62%
    15:00 +1°C° 0.2 mm 2 mps 642 mmHg 65%
    16:00 -1°C° 0.2 mm 2 mps 642 mmHg 68%
    17:00 -1°C° 0.2 mm 2 mps 643 mmHg 71%
    18:00 -2°C° 0.2 mm 2 mps 643 mmHg 74%
    19:00 -2°C° 0.1 mm 2 mps 643 mmHg 75%
    20:00 -2°C° 0.1 mm 2 mps 643 mmHg 75%
    21:00 -3°C° 0.1 mm 2 mps 643 mmHg 76%
    22:00 -3°C° 0 mm 2 mps 643 mmHg 76%
    23:00 -3°C° 0 mm 2 mps 644 mmHg 75%

    Tomorrow, 15 December, Saturday

    Time Temperature Precipitation Wind Pressure Humidity
    00:00 -3°C° 0 mm 2 mps 644 mmHg 75%
    01:00 -3°C° 0 mm 2 mps 644 mmHg 74%
    02:00 -4°C° 0 mm 2 mps 644 mmHg 74%
    03:00 -4°C° 0 mm 2 mps 644 mmHg 74%
    04:00 -4°C° 0 mm 2 mps 644 mmHg 73%
    05:00 -4°C° 0 mm 2 mps 644 mmHg 72%
    06:00 -4°C° 0 mm 2 mps 644 mmHg 72%
    07:00 -3°C° 0 mm 2 mps 644 mmHg 69%
    08:00 -2°C° 0 mm 2 mps 645 mmHg 67%
    09:00 -2°C° 0 mm 2 mps 645 mmHg 64%
    10:00 +1°C° 0 mm 2 mps 645 mmHg 62%
    11:00 +2°C° 0 mm 2 mps 645 mmHg 59%
    12:00 +2°C° 0 mm 3 mps 645 mmHg 57%
    13:00 +3°C° 0 mm 2 mps 644 mmHg 57%
    14:00 +3°C° 0 mm 2 mps 644 mmHg 57%
    15:00 +3°C° 0 mm 2 mps 644 mmHg 58%
    16:00 +2°C° 0 mm 2 mps 644 mmHg 60%
    17:00 +1°C° 0 mm 2 mps 644 mmHg 62%
    18:00 -1°C° 0 mm 2 mps 644 mmHg 64%
    19:00 -1°C° 0 mm 2 mps 644 mmHg 64%
    20:00 -1°C° 0 mm 2 mps 644 mmHg 64%
    21:00 +1°C° 0 mm 1 mps 644 mmHg 64%
    22:00 0°C° 0 mm 1 mps 644 mmHg 65%
    23:00 0°C° 0 mm 1 mps 644 mmHg 66%

    Day after tomorrow, 16 December, Sunday

    Time Temperature Precipitation Wind Pressure Humidity
    00:00 0°C° 0 mm 1 mps 643 mmHg 66%
    01:00 0°C° 0 mm 1 mps 643 mmHg 67%
    02:00 0°C° 0 mm 1 mps 643 mmHg 67%
    03:00 0°C° 0 mm 1 mps 643 mmHg 68%
    04:00 0°C° 0 mm 1 mps 643 mmHg 68%
    05:00 -2°C° 0 mm 2 mps 643 mmHg 68%
    06:00 -2°C° 0 mm 2 mps 643 mmHg 68%
    07:00 -1°C° 0 mm 2 mps 643 mmHg 66%
    08:00 +1°C° 0 mm 2 mps 643 mmHg 64%
    09:00 +1°C° 0 mm 2 mps 644 mmHg 62%
    10:00 +3°C° 0 mm 2 mps 643 mmHg 60%
    11:00 +4°C° 0 mm 2 mps 643 mmHg 57%
    12:00 +5°C° 0 mm 2 mps 643 mmHg 55%
    13:00 +5°C° 0 mm 2 mps 643 mmHg 55%
    14:00 +5°C° 0 mm 2 mps 643 mmHg 56%
    15:00 +5°C° 0 mm 2 mps 643 mmHg 56%
    16:00 +4°C° 0 mm 2 mps 643 mmHg 58%
    17:00 +3°C° 0 mm 2 mps 643 mmHg 60%
    18:00 +2°C° 0 mm 2 mps 643 mmHg 62%
    19:00 +2°C° 0 mm 2 mps 643 mmHg 62%
    20:00 +2°C° 0 mm 2 mps 643 mmHg 62%
    21:00 +1°C° 0 mm 2 mps 643 mmHg 62%
    22:00 +1°C° 0 mm 2 mps 643 mmHg 62%
    23:00 +1°C° 0 mm 2 mps 643 mmHg 62%

    17 December, Monday

    Time Temperature Precipitation Wind Pressure Humidity
    00:00 +2°C° 0 mm 1 mps 643 mmHg 62%
    01:00 +2°C° 0 mm 1 mps 643 mmHg 62%
    02:00 +1°C° 0 mm 1 mps 643 mmHg 62%
    03:00 +1°C° 0 mm 1 mps 643 mmHg 62%
    04:00 +1°C° 0 mm 1 mps 642 mmHg 61%
    05:00 +1°C° 0 mm 1 mps 642 mmHg 61%
    06:00 +1°C° 0 mm 1 mps 642 mmHg 61%
    07:00 +2°C° 0 mm 1 mps 642 mmHg 59%
    08:00 +3°C° 0 mm 1 mps 642 mmHg 58%
    09:00 +3°C° 0 mm 1 mps 642 mmHg 57%
    10:00 +4°C° 0 mm 1 mps 642 mmHg 55%
    11:00 +5°C° 0 mm 1 mps 642 mmHg 53%
    12:00 +6°C° 0 mm 1 mps 642 mmHg 51%
    13:00 +6°C° 0 mm 1 mps 641 mmHg 52%
    14:00 +6°C° 0 mm 1 mps 641 mmHg 53%
    15:00 +6°C° 0 mm 1 mps 640 mmHg 55%
    16:00 +5°C° 0 mm 1 mps 640 mmHg 59%
    17:00 +4°C° 0 mm 1 mps 640 mmHg 63%
    18:00 +3°C° 0 mm 1 mps 640 mmHg 67%
    19:00 +3°C° 0.1 mm 1 mps 640 mmHg 69%
    20:00 +3°C° 0.1 mm 1 mps 641 mmHg 71%
    21:00 +3°C° 0.1 mm 1 mps 641 mmHg 73%
    22:00 +2°C° 0.3 mm 1 mps 640 mmHg 75%
    23:00 +2°C° 0.3 mm 1 mps 640 mmHg 77%

    18 December, Tuesday

    Time Temperature Precipitation Wind Pressure Humidity
    00:00 +2°C° 0.3 mm 1 mps 640 mmHg 79%
    01:00 +2°C° 0.5 mm 1 mps 640 mmHg 80%
    02:00 +1°C° 0.5 mm 2 mps 640 mmHg 81%
    03:00 +1°C° 0.5 mm 2 mps 640 mmHg 82%
    04:00 +1°C° 0.5 mm 2 mps 639 mmHg 82%
    05:00 -1°C° 0.5 mm 2 mps 639 mmHg 83%
    06:00 -1°C° 0.5 mm 2 mps 639 mmHg 83%
    07:00 -1°C° 0.4 mm 2 mps 639 mmHg 83%
    08:00 +1°C° 0.4 mm 2 mps 640 mmHg 82%
    09:00 +1°C° 0.4 mm 2 mps 640 mmHg 81%
    10:00 +2°C° 0.4 mm 1 mps 640 mmHg 80%
    11:00 +3°C° 0.4 mm 1 mps 640 mmHg 78%
    12:00 +3°C° 0.4 mm 1 mps 640 mmHg 77%
    13:00 +3°C° 0.2 mm 1 mps 640 mmHg 76%
    14:00 +3°C° 0.2 mm 1 mps 640 mmHg 76%
    15:00 +3°C° 0.2 mm 1 mps 640 mmHg 75%
    16:00 +3°C° 0.1 mm 1 mps 640 mmHg 78%
    17:00 +2°C° 0.1 mm 1 mps 640 mmHg 80%
    18:00 +1°C° 0.1 mm 1 mps 641 mmHg 82%
    19:00 +1°C° 0.1 mm 1 mps 641 mmHg 82%
    20:00 +1°C° 0.1 mm 1 mps 641 mmHg 81%
    21:00 +1°C° 0.1 mm 1 mps 642 mmHg 80%
    22:00 +1°C° 0.1 mm 1 mps 642 mmHg 80%
    23:00 0°C° 0.1 mm 1 mps 642 mmHg 80%

    19 December, Wednesday

    Time Temperature Precipitation Wind Pressure Humidity
    00:00 0°C° 0.1 mm 1 mps 642 mmHg 80%
    01:00 0°C° 0.1 mm 1 mps 642 mmHg 80%
    02:00 0°C° 0.1 mm 1 mps 642 mmHg 80%
    03:00 0°C° 0.1 mm 1 mps 642 mmHg 80%
    04:00 -1°C° 0 mm 1 mps 642 mmHg 80%
    05:00 -1°C° 0 mm 1 mps 642 mmHg 80%
    06:00 -1°C° 0 mm 1 mps 642 mmHg 80%
    07:00 0°C° 0 mm 1 mps 643 mmHg 79%
    08:00 0°C° 0 mm 1 mps 643 mmHg 77%
    09:00 -1°C° 0 mm 2 mps 644 mmHg 75%
    10:00 +1°C° 0 mm 2 mps 643 mmHg 73%
    11:00 +2°C° 0 mm 2 mps 643 mmHg 71%
    12:00 +2°C° 0 mm 2 mps 643 mmHg 68%
    13:00 +2°C° 0 mm 2 mps 643 mmHg 68%
    14:00 +2°C° 0 mm 2 mps 643 mmHg 68%
    15:00 +2°C° 0 mm 2 mps 643 mmHg 68%
    16:00 +1°C° 0 mm 2 mps 643 mmHg 70%
    17:00 -1°C° 0 mm 2 mps 643 mmHg 72%
    18:00 -2°C° 0 mm 2 mps 643 mmHg 74%
    19:00 -2°C° 0 mm 2 mps 643 mmHg 75%
    20:00 -2°C° 0 mm 2 mps 643 mmHg 75%
    21:00 -2°C° 0 mm 2 mps 643 mmHg 75%
    22:00 -2°C° 0 mm 2 mps 643 mmHg 76%
    23:00 -3°C° 0 mm 2 mps 643 mmHg 76%
    Show more